This is the latest recevied weather packets stored in our database for station/object WW3TRG. If no packets are shown the sender has not sent any weather packets the latest 10 day(s).
| Time | Temp. | Humidity | Pressure | Rain* | Wind** | Luminosity | Snow |
|---|---|---|---|---|---|---|---|
| 1788601869 | 19.44° C | 81% | 1010.8 hPa | 0 mm | - | 0 W/m² | - |
| 1788601564 | 19.44° C | 81% | 1010.6 hPa | 0 mm | - | 0 W/m² | - |
| 1788601263 | 19.44° C | 81% | 1010.6 hPa | 0 mm | - | 0 W/m² | - |
| 1788600963 | 19.44° C | 81% | 1010.6 hPa | 0 mm | - | 0 W/m² | - |
| 1788600659 | 20° C | 81% | 1010.4 hPa | 0 mm | - | 0 W/m² | - |
| 1788600359 | 20° C | 81% | 1010.5 hPa | 0 mm | - | 0 W/m² | - |
| 1788600055 | 20° C | 81% | 1010.6 hPa | 0 mm | - | 0 W/m² | - |
| 1788599772 | 20° C | 81% | 1010.5 hPa | 0 mm | - | 0 W/m² | - |
| 1788599449 | 20° C | 81% | 1010.5 hPa | 0 mm | - | 0 W/m² | - |
| 1788599149 | 20.56° C | 81% | 1010.3 hPa | 0 mm | - | 0 W/m² | - |
| 1788598844 | 20.56° C | 81% | 1010.5 hPa | 0 mm | - | 0 W/m² | - |
| 1788598542 | 21.11° C | 80% | 1010.6 hPa | 0 mm | - | 0 W/m² | - |
| 1788598238 | 21.67° C | 75% | 1010.5 hPa | 0 mm | - | 0 W/m² | - |
| 1788597938 | 21.11° C | 75% | 1010.4 hPa | 0 mm | - | 0 W/m² | - |
| 1788597633 | 20° C | 81% | 1010.4 hPa | 0 mm | - | 0 W/m² | - |
| 1788597328 | 20.56° C | 82% | 1010.4 hPa | 0 mm | - | 0 W/m² | - |
| 1788597025 | 20.56° C | 82% | 1010.4 hPa | 0 mm | - | 0 W/m² | - |
| 1788596720 | 20.56° C | 81% | 1010.3 hPa | 0 mm | - | 0 W/m² | - |
| 1788596415 | 20° C | 82% | 1010.4 hPa | 0 mm | - | 0 W/m² | - |
| 1788596109 | 20.56° C | 82% | 1010.7 hPa | 0 mm | - | 0 W/m² | - |
| 1788595803 | 20.56° C | 81% | 1010.7 hPa | 0 mm | - | 0 W/m² | - |
| 1788595498 | 20.56° C | 82% | 1010.6 hPa | 0 mm | - | 0 W/m² | - |
| 1788595197 | 20.56° C | 82% | 1010.6 hPa | 0 mm | - | 0 W/m² | - |
| 1788594891 | 20.56° C | 82% | 1010.8 hPa | 0 mm | - | 0 W/m² | - |
| 1788594604 | 20° C | 81% | 1010.8 hPa | 0 mm | - | 0 W/m² | - |
* Rain latest hour (hover to see other rain measurements)
** Current wind speed in m/s (hover to see current wind gust speed)